Palm Springs, CA

12:13 AM PST on February 08, 2016 (GMT -0800)
Palm Springs International

Weather History for KPSP - October, 2013

Change the Weather History Date:

Thursday, October 31, 2013

  Actual Average Record
Temperature  
Mean Temperature 66 °F 71 °F  
Max Temperature 81 °F 84 °F 102 °F (1966)
Min Temperature 51 °F 58 °F 36 °F (1971)
Degree Days  
Heating Degree Days 0 1  
Month to date heating degree days 10 2  
Since 1 July heating degree days 10 4  
Cooling Degree Days 1 6  
Month to date cooling degree days 272 336  
Year to date cooling degree days 4437 4062  
Growing Degree Days 16 (Base 50)    
Moisture  
Dew Point 27 °F    
Average Humidity 28    
Maximum Humidity 46    
Minimum Humidity 9    
Precipitation  
Precipitation 0.00 in 0.02 in 0.52 in (1957)
Month to date precipitation 0.07 0.44  
Year to date precipitation 2.12 4.33  
Since 1 July precipitation 1.15  
Snow  
Snow 0.00 in - - ()
Month to date snowfall 0.0  
Year to date snowfall 0.0  
Snow Depth 0.00 in    
Sea Level Pressure  
Sea Level Pressure 30.08 in    
Wind  
Wind Speed 5 mph (NW)    
Max Wind Speed 12 mph    
Max Gust Speed 13 mph    
Visibility 10 miles    
Events      
T = Trace of Precipitation, MM = Missing Value Source: NWS Daily Summary

Daily Weather History Graph

Daily Weather History Graph

Search for Another Location

Airport or City:

Trip Planner

Search our weather history database for the weather conditions in past years. The results will help you decide how hot, cold, wet, or windy it might be!

Date:

Astronomy

Oct. 31, 2013 Rise Set
Actual Time 7:04 AM PDT 5:54 PM PDT
Civil Twilight 6:38 AM PDT 6:19 PM PDT
Nautical Twilight 6:09 AM PDT 6:49 PM PDT
Astronomical Twilight 5:40 AM PDT 7:18 PM PDT
Moon 4:06 AM PDT (10/31) 4:08 PM PDT (10/31)
Length of Visible Light 11h 40m
Length of Day
10h 49m
Waning Crescent, 9% of the Moon is Illuminated
Oct 31
Waning Crescent
Nov 3
New
Nov 9
First Quarter
Nov 17
Full
Nov 25
Last Quarter

Hourly Weather History & Observations

Time (PDT) Temp. Dew Point Humidity Pressure Visibility Wind Dir Wind Speed Gust Speed Precip Events Conditions
12:53 AM 59.0 °F 32.0 °F 36% 30.07 in 10.0 mi NW 3.5 mph - N/A   Clear
1:53 AM 57.9 °F 30.9 °F 36% 30.09 in 10.0 mi NNW 5.8 mph - N/A   Clear
2:53 AM 55.9 °F 30.9 °F 39% 30.08 in 10.0 mi NNW 8.1 mph - N/A   Clear
3:53 AM 55.9 °F 32.0 °F 40% 30.08 in 10.0 mi NNW 6.9 mph - N/A   Clear
4:53 AM 54.0 °F 30.9 °F 41% 30.09 in 10.0 mi NW 8.1 mph - N/A   Clear
5:53 AM 53.1 °F 30.0 °F 41% 30.10 in 10.0 mi NNW 9.2 mph - N/A   Clear
6:53 AM 53.1 °F 33.1 °F 47% 30.11 in 10.0 mi Calm Calm - N/A   Clear
7:53 AM 55.0 °F 30.9 °F 40% 30.11 in 10.0 mi North 5.8 mph - N/A   Clear
8:53 AM 63.0 °F 23.0 °F 22% 30.13 in 10.0 mi North 5.8 mph - N/A   Clear
9:53 AM 66.0 °F 32.0 °F 28% 30.14 in 10.0 mi Calm Calm - N/A   Clear
10:53 AM 70.0 °F 28.0 °F 21% 30.13 in 10.0 mi SSW 3.5 mph - N/A   Clear
11:53 AM 73.9 °F 26.1 °F 17% 30.12 in 10.0 mi Variable 3.5 mph - N/A   Clear
12:53 PM 77.0 °F 23.0 °F 13% 30.09 in 10.0 mi Variable 3.5 mph - N/A   Clear
1:53 PM 79.0 °F 19.0 °F 11% 30.06 in 10.0 mi Variable 5.8 mph - N/A   Clear
2:53 PM 80.1 °F 17.1 °F 9% 30.04 in 10.0 mi Calm Calm - N/A   Clear
3:53 PM 80.1 °F 18.0 °F 10% 30.02 in 10.0 mi WSW 4.6 mph - N/A   Clear
4:53 PM 79.0 °F 19.0 °F 11% 30.02 in 10.0 mi SSW 3.5 mph - N/A   Clear
5:53 PM 75.9 °F 24.1 °F 15% 30.02 in 10.0 mi SSW 3.5 mph - N/A   Clear
6:53 PM 73.9 °F 26.1 °F 17% 30.04 in 10.0 mi Calm Calm - N/A   Clear
7:53 PM 68.0 °F 30.9 °F 25% 30.04 in 10.0 mi Calm Calm - N/A   Clear
8:53 PM 66.0 °F 33.1 °F 29% 30.06 in 10.0 mi Calm Calm - N/A   Clear
9:53 PM 63.0 °F 32.0 °F 31% 30.08 in 10.0 mi Calm Calm - N/A   Clear
10:53 PM 63.0 °F 28.9 °F 28% 30.09 in 10.0 mi NNW 4.6 mph - N/A   Clear
11:53 PM 61.0 °F 25.0 °F 25% 30.09 in 10.0 mi NNW 8.1 mph - N/A   Clear